This is the latest recevied weather packets stored in our database for station/object CE3MXM-12. If no packets are shown the sender has not sent any weather packets the latest 10 day(s).
| Time | Temp. | Humidity | Pressure | Rain* | Wind** | Luminosity | Snow |
|---|---|---|---|---|---|---|---|
| 1777473758 | 19.44° C | 66% | 1015.6 hPa | - | - | - | - |
| 1777473457 | 19.44° C | 68% | 1015.7 hPa | - | - | - | - |
| 1777473157 | 18.89° C | 68% | 1015.7 hPa | - | - | - | - |
| 1777472857 | 18.89° C | 70% | 1015.8 hPa | - | - | - | - |
| 1777472557 | 18.33° C | 70% | 1015.9 hPa | - | - | - | - |
| 1777472256 | 18.33° C | 71% | 1015.9 hPa | - | - | - | - |
| 1777471957 | 18.33° C | 73% | 1015.7 hPa | - | - | - | - |
| 1777471657 | 17.78° C | 73% | 1015.7 hPa | - | - | - | - |
| 1777471356 | 17.78° C | 74% | 1015.9 hPa | - | - | - | - |
| 1777471056 | 17.78° C | 74% | 1015.8 hPa | - | - | - | - |
| 1777470756 | 17.78° C | 75% | 1015.8 hPa | - | - | - | - |
| 1777470456 | 17.78° C | 76% | 1015.7 hPa | - | - | - | - |
| 1777470156 | 17.22° C | 77% | 1015.8 hPa | - | - | - | - |
| 1777469856 | 17.22° C | 78% | 1015.7 hPa | - | - | - | - |
| 1777469556 | 16.67° C | 78% | 1015.9 hPa | - | - | - | - |
| 1777469255 | 17.22° C | 78% | 1016.1 hPa | - | - | - | - |
| 1777468956 | 16.67° C | 78% | 1016.1 hPa | - | - | - | - |
| 1777468655 | 16.67° C | 78% | 1015.9 hPa | - | - | - | - |
| 1777468355 | 16.67° C | 78% | 1015.8 hPa | - | - | - | - |
| 1777468055 | 16.67° C | 79% | 1015.9 hPa | - | - | - | - |
| 1777467755 | 16.67° C | 79% | 1015.9 hPa | - | - | - | - |
| 1777467455 | 16.67° C | 79% | 1016 hPa | - | - | - | - |
| 1777467155 | 16.67° C | 81% | 1016 hPa | - | - | - | - |
| 1777466855 | 16.11° C | 82% | 1015.9 hPa | - | - | - | - |
| 1777466555 | 15.56° C | 83% | 1015.8 hPa | - | - | - | - |
* Rain since midnight (hover to see other rain measurements)
** Current wind speed in m/s (hover to see current wind gust speed)